START_TIME,STEP,MOV.,P1,t_acc.,E44,t_acc.,A3,t_acc.,P10,t_acc.
1979-07-16 09:00:23.410 ,0,0,2.,1.2,15.,1.2,0.,1.2,0.,1.2
1979-07-16 09:00:24.610 ,0,0,1.,1.2,23.,1.2,0.,1.2,0.,1.2
1979-07-16 09:00:25.810 ,0,0,4.,1.2,21.,1.2,0.,1.2,0.,1.2
1979-07-16 09:00:27.010 ,0,0,2.,1.2,21.,1.2,0.,1.2,0.,1.2
1979-07-16 09:00:28.210 ,0,0,1.,1.2,18.,1.2,0.,1.2,0.,1.2
1979-07-16 09:00:29.410 ,0,0,4.,1.2,29.,1.2,0.,1.2,1.,1.2
1979-07-16 09:00:30.610 ,0,0,5.,1.2,21.,1.2,0.,1.2,0.,1.2
1979-07-16 09:00:31.810 ,0,0,0.,1.2,17.,1.2,0.,1.2,0.,1.2
1979-07-16 09:00:33.010 ,0,0,2.,1.2,19.,1.2,0.,1.2,0.,1.2
1979-07-16 09:00:34.210 ,0,0,3.,1.2,20.,1.2,0.,1.2,0.,1.2
1979-07-16 09:00:35.410 ,0,0,5.,1.2,16.,1.2,0.,1.2,0.,1.2
1979-07-16 09:00:36.610 ,0,0,4.,1.2,23.,1.2,0.,1.2,0.,1.2
1979-07-16 09:00:37.810 ,0,0,2.,1.2,20.,1.2,0.,1.2,0.,1.2
1979-07-16 09:00:39.010 ,0,0,3.,1.2,31.,1.2,0.,1.2,0.,1.2
1979-07-16 09:00:40.210 ,0,0,1.,1.2,14.,1.2,0.,1.2,0.,1.2
1979-07-16 09:00:41.410 ,0,0,1.,1.2,17.,1.2,0.,1.2,0.,1.2
1979-07-16 09:00:42.610 ,0,0,1.,1.2,22.,1.2,0.,1.2,0.,1.2
1979-07-16 09:00:43.810 ,0,0,1.,1.2,25.,1.2,0.,1.2,0.,1.2
1979-07-16 09:00:45.010 ,0,0,2.,1.2,25.,1.2,0.,1.2,0.,1.2
1979-07-16 09:00:46.210 ,0,0,3.,1.2,15.,1.2,0.,1.2,0.,1.2
1979-07-16 09:00:47.410 ,0,0,2.,1.2,27.,1.2,0.,1.2,0.,1.2
1979-07-16 09:00:48.610 ,0,0,0.,1.2,28.,1.2,0.,1.2,0.,1.2
1979-07-16 09:00:49.810 ,0,0,3.,1.2,13.,1.2,0.,1.2,0.,1.2
1979-07-16 09:00:51.010 ,0,0,3.,1.2,21.,1.2,0.,1.2,0.,1.2
1979-07-16 09:00:52.210 ,0,0,4.,1.2,20.,1.2,0.,1.2,0.,1.2
1979-07-16 09:00:53.410 ,0,0,1.,1.2,40.,1.2,0.,1.2,0.,1.2
1979-07-16 09:00:54.610 ,0,0,4.,1.2,18.,1.2,0.,1.2,0.,1.2
1979-07-16 09:00:55.810 ,0,0,1.,1.2,17.,1.2,0.,1.2,0.,1.2
1979-07-16 09:00:57.010 ,0,0,5.,1.2,26.,1.2,0.,1.2,1.,1.2
1979-07-16 09:00:58.210 ,0,0,2.,1.2,8.,1.2,1.,1.2,0.,1.2
1979-07-16 09:00:59.410 ,0,0,4.,1.2,23.,1.2,0.,1.2,0.,1.2
1979-07-16 09:01:00.610 ,0,0,1.,1.2,20.,1.2,1.,1.2,0.,1.2
1979-07-16 09:01:01.810 ,0,0,2.,1.2,18.,1.2,0.,1.2,0.,1.2
1979-07-16 09:01:03.010 ,0,0,3.,1.2,26.,1.2,0.,1.2,0.,1.2
1979-07-16 09:01:04.210 ,0,0,1.,1.2,17.,1.2,0.,1.2,0.,1.2
1979-07-16 09:01:05.410 ,0,0,2.,1.2,22.,1.2,0.,1.2,0.,1.2
1979-07-16 09:01:06.610 ,0,0,8.,1.2,29.,1.2,0.,1.2,0.,1.2
1979-07-16 09:01:07.810 ,0,0,2.,1.2,27.,1.2,0.,1.2,0.,1.2
1979-07-16 09:01:09.010 ,0,0,3.,1.2,21.,1.2,0.,1.2,0.,1.2
1979-07-16 09:01:10.210 ,0,0,3.,1.2,26.,1.2,1.,1.2,0.,1.2
1979-07-16 09:01:11.410 ,0,0,1.,1.2,24.,1.2,0.,1.2,1.,1.2
1979-07-16 09:01:12.610 ,0,0,2.,1.2,26.,1.2,0.,1.2,0.,1.2
1979-07-16 09:01:13.810 ,0,0,2.,1.2,27.,1.2,0.,1.2,0.,1.2
1979-07-16 09:01:15.010 ,0,0,8.,1.2,29.,1.2,0.,1.2,0.,1.2
1979-07-16 09:01:16.210 ,0,0,4.,1.2,19.,1.2,0.,1.2,0.,1.2
1979-07-16 09:01:17.410 ,0,0,0.,1.2,28.,1.2,0.,1.2,0.,1.2
1979-07-16 09:01:18.610 ,0,0,10.,1.2,31.,1.2,0.,1.2,0.,1.2
1979-07-16 09:01:19.810 ,0,0,0.,1.2,22.,1.2,0.,1.2,0.,1.2
1979-07-16 09:01:21.010 ,0,0,2.,1.2,14.,1.2,0.,1.2,0.,1.2
1979-07-16 09:01:22.210 ,0,0,3.,1.2,17.,1.2,0.,1.2,0.,1.2
1979-07-16 09:01:23.410 ,0,0,2.,1.2,16.,1.2,0.,1.2,0.,1.2
1979-07-16 09:01:24.610 ,0,0,3.,1.2,24.,1.2,0.,1.2,1.,1.2
1979-07-16 09:01:25.810 ,0,0,5.,1.2,25.,1.2,0.,1.2,0.,1.2
1979-07-16 09:01:27.010 ,0,0,6.,1.2,22.,1.2,0.,1.2,0.,1.2
1979-07-16 09:01:28.210 ,0,0,2.,1.2,15.,1.2,0.,1.2,0.,1.2
1979-07-16 09:01:29.410 ,0,0,2.,1.2,23.,1.2,1.,1.2,0.,1.2
1979-07-16 09:01:30.610 ,0,0,3.,1.2,18.,1.2,1.,1.2,0.,1.2
1979-07-16 09:01:31.810 ,0,0,2.,1.2,17.,1.2,0.,1.2,0.,1.2
1979-07-16 09:01:33.010 ,0,0,3.,1.2,22.,1.2,1.,1.2,0.,1.2
1979-07-16 09:01:34.210 ,0,0,2.,1.2,22.,1.2,0.,1.2,0.,1.2
1979-07-16 09:01:35.410 ,1,0,4.,1.2,18.,1.2,0.,1.2,0.,1.2
1979-07-16 09:01:36.610 ,1,0,2.,1.2,19.,1.2,0.,1.2,0.,1.2
1979-07-16 09:01:37.810 ,1,0,1.,1.2,16.,1.2,0.,1.2,0.,1.2
1979-07-16 09:01:39.010 ,1,0,3.,1.2,28.,1.2,0.,1.2,0.,1.2
1979-07-16 09:01:40.210 ,1,0,1.,1.2,31.,1.2,0.,1.2,0.,1.2
1979-07-16 09:01:41.410 ,1,0,4.,1.2,512.,1.2,0.,1.2,0.,1.2
1979-07-16 09:01:42.610 ,1,0,2.,1.2,23.,1.2,0.,1.2,1.,1.2
1979-07-16 09:01:43.810 ,1,0,4.,1.2,21.,1.2,2.,1.2,0.,1.2
1979-07-16 09:01:45.010 ,1,0,1.,1.2,28.,1.2,0.,1.2,0.,1.2
1979-07-16 09:01:46.210 ,1,0,2.,1.2,19.,1.2,0.,1.2,0.,1.2
1979-07-16 09:01:47.410 ,1,0,3.,1.2,31.,1.2,0.,1.2,0.,1.2
1979-07-16 09:01:48.610 ,1,0,4.,1.2,23.,1.2,0.,1.2,0.,1.2
1979-07-16 09:01:49.810 ,1,0,3.,1.2,27.,1.2,0.,1.2,1.,1.2
1979-07-16 09:01:51.010 ,1,0,1.,1.2,40.,1.2,0.,1.2,0.,1.2
1979-07-16 09:01:52.210 ,1,0,4.,1.2,31.,1.2,0.,1.2,0.,1.2
1979-07-16 09:01:53.410 ,1,0,3.,1.2,32.,1.2,0.,1.2,1.,1.2
1979-07-16 09:01:54.610 ,1,0,2.,1.2,30.,1.2,0.,1.2,0.,1.2
1979-07-16 09:01:55.810 ,1,0,6.,1.2,33.,1.2,0.,1.2,2.,1.2
1979-07-16 09:01:57.010 ,1,0,4.,1.2,39.,1.2,0.,1.2,1.,1.2
1979-07-16 09:01:58.210 ,1,0,0.,1.2,31.,1.2,1.,1.2,0.,1.2
1979-07-16 09:01:59.410 ,1,0,3.,1.2,32.,1.2,0.,1.2,0.,1.2
1979-07-16 09:02:00.610 ,1,0,8.,1.2,29.,1.2,1.,1.2,0.,1.2
1979-07-16 09:02:01.810 ,1,0,4.,1.2,28.,1.2,0.,1.2,0.,1.2
1979-07-16 09:02:03.010 ,1,0,1.,1.2,28.,1.2,0.,1.2,0.,1.2
1979-07-16 09:02:04.210 ,1,0,4.,1.2,24.,1.2,0.,1.2,0.,1.2
1979-07-16 09:02:05.410 ,1,0,4.,1.2,21.,1.2,0.,1.2,1.,1.2
1979-07-16 09:02:06.610 ,1,0,2.,1.2,33.,1.2,0.,1.2,2.,1.2
1979-07-16 09:02:07.810 ,1,0,7.,1.2,33.,1.2,1.,1.2,0.,1.2
1979-07-16 09:02:09.010 ,1,0,1.,1.2,29.,1.2,0.,1.2,0.,1.2
1979-07-16 09:02:10.210 ,1,0,2.,1.2,38.,1.2,0.,1.2,0.,1.2
1979-07-16 09:02:11.410 ,1,0,3.,1.2,20.,1.2,0.,1.2,1.,1.2
1979-07-16 09:02:12.610 ,1,0,1.,1.2,38.,1.2,0.,1.2,1.,1.2
1979-07-16 09:02:13.810 ,1,0,2.,1.2,37.,1.2,0.,1.2,0.,1.2
1979-07-16 09:02:15.010 ,1,0,3.,1.2,24.,1.2,0.,1.2,0.,1.2
1979-07-16 09:02:16.210 ,1,0,2.,1.2,35.,1.2,0.,1.2,0.,1.2
1979-07-16 09:02:17.410 ,1,0,2.,1.2,28.,1.2,0.,1.2,0.,1.2
1979-07-16 09:02:18.610 ,1,0,1.,1.2,36.,1.2,0.,1.2,0.,1.2
1979-07-16 09:02:19.810 ,1,0,6.,1.2,36.,1.2,0.,1.2,2.,1.2
1979-07-16 09:02:21.010 ,1,0,3.,1.2,26.,1.2,0.,1.2,0.,1.2
1979-07-16 09:02:22.210 ,1,0,1.,1.2,30.,1.2,0.,1.2,0.,1.2
1979-07-16 09:02:23.410 ,2,0,2.,1.2,34.,1.2,0.,1.2,0.,1.2
1979-07-16 09:02:24.610 ,2,0,4.,1.2,38.,1.2,0.,1.2,1.,1.2
1979-07-16 09:02:25.810 ,2,0,3.,1.2,24.,1.2,0.,1.2,0.,1.2
1979-07-16 09:02:27.010 ,2,0,4.,1.2,27.,1.2,1.,1.2,0.,1.2
1979-07-16 09:02:28.210 ,2,0,6.,1.2,41.,1.2,0.,1.2,0.,1.2
1979-07-16 09:02:29.410 ,2,0,1.,1.2,488.,1.2,0.,1.2,1.,1.2
1979-07-16 09:02:30.610 ,2,0,4.,1.2,26.,1.2,0.,1.2,0.,1.2
1979-07-16 09:02:31.810 ,2,0,2.,1.2,31.,1.2,0.,1.2,0.,1.2
1979-07-16 09:02:33.010 ,2,0,0.,1.2,24.,1.2,0.,1.2,0.,1.2
1979-07-16 09:02:34.210 ,2,0,3.,1.2,21.,1.2,0.,1.2,0.,1.2
1979-07-16 09:02:35.410 ,2,0,3.,1.2,26.,1.2,0.,1.2,0.,1.2
1979-07-16 09:02:36.610 ,2,0,2.,1.2,25.,1.2,0.,1.2,0.,1.2
1979-07-16 09:02:37.810 ,2,0,6.,1.2,29.,1.2,0.,1.2,0.,1.2
1979-07-16 09:02:39.010 ,2,0,0.,1.2,31.,1.2,0.,1.2,0.,1.2
1979-07-16 09:02:40.210 ,2,0,1.,1.2,22.,1.2,0.,1.2,0.,1.2
1979-07-16 09:02:41.410 ,2,0,2.,1.2,29.,1.2,0.,1.2,0.,1.2
1979-07-16 09:02:42.610 ,2,0,3.,1.2,35.,1.2,0.,1.2,0.,1.2
1979-07-16 09:02:43.810 ,2,0,3.,1.2,29.,1.2,0.,1.2,0.,1.2
1979-07-16 09:02:45.010 ,2,0,2.,1.2,26.,1.2,0.,1.2,0.,1.2
1979-07-16 09:02:46.210 ,2,0,2.,1.2,16.,1.2,0.,1.2,0.,1.2
1979-07-16 09:02:47.410 ,2,0,1.,1.2,38.,1.2,0.,1.2,0.,1.2
1979-07-16 09:02:48.610 ,2,0,3.,1.2,29.,1.2,0.,1.2,0.,1.2
1979-07-16 09:02:49.810 ,2,0,2.,1.2,24.,1.2,0.,1.2,1.,1.2
1979-07-16 09:02:51.010 ,2,0,3.,1.2,35.,1.2,1.,1.2,0.,1.2
1979-07-16 09:02:52.210 ,2,0,3.,1.2,14.,1.2,0.,1.2,1.,1.2
1979-07-16 09:02:53.410 ,2,0,2.,1.2,30.,1.2,0.,1.2,0.,1.2
1979-07-16 09:02:54.610 ,2,0,2.,1.2,22.,1.2,0.,1.2,0.,1.2
1979-07-16 09:02:55.810 ,2,0,4.,1.2,21.,1.2,0.,1.2,0.,1.2
1979-07-16 09:02:57.010 ,2,0,2.,1.2,26.,1.2,0.,1.2,0.,1.2
1979-07-16 09:02:58.210 ,2,0,0.,1.2,25.,1.2,0.,1.2,0.,1.2
1979-07-16 09:02:59.410 ,2,0,1.,1.2,35.,1.2,1.,1.2,0.,1.2
1979-07-16 09:03:00.610 ,2,0,5.,1.2,42.,1.2,0.,1.2,0.,1.2
1979-07-16 09:03:01.810 ,2,0,2.,1.2,43.,1.2,0.,1.2,0.,1.2
1979-07-16 09:03:03.010 ,2,0,3.,1.2,24.,1.2,0.,1.2,0.,1.2
1979-07-16 09:03:04.210 ,2,0,1.,1.2,27.,1.2,0.,1.2,0.,1.2
1979-07-16 09:03:05.410 ,2,0,3.,1.2,20.,1.2,0.,1.2,0.,1.2
1979-07-16 09:03:06.610 ,2,0,1.,1.2,35.,1.2,0.,1.2,0.,1.2
1979-07-16 09:03:07.810 ,2,0,2.,1.2,20.,1.2,0.,1.2,0.,1.2
1979-07-16 09:03:09.010 ,2,0,0.,1.2,32.,1.2,0.,1.2,0.,1.2
1979-07-16 09:03:10.210 ,2,0,4.,1.2,24.,1.2,0.,1.2,0.,1.2
1979-07-16 09:03:11.410 ,3,0,2.,1.2,25.,1.2,1.,1.2,0.,1.2
1979-07-16 09:03:12.610 ,3,0,2.,1.2,26.,1.2,0.,1.2,0.,1.2
1979-07-16 09:03:13.810 ,3,0,5.,1.2,34.,1.2,0.,1.2,0.,1.2
1979-07-16 09:03:15.010 ,3,0,1.,1.2,28.,1.2,0.,1.2,0.,1.2
1979-07-16 09:03:16.210 ,3,0,3.,1.2,23.,1.2,0.,1.2,0.,1.2
1979-07-16 09:03:17.410 ,3,0,5.,1.2,560.,1.2,0.,1.2,0.,1.2
1979-07-16 09:03:18.610 ,3,0,2.,1.2,15.,1.2,1.,1.2,0.,1.2
1979-07-16 09:03:19.810 ,3,0,2.,1.2,17.,1.2,0.,1.2,0.,1.2
1979-07-16 09:03:21.010 ,3,0,4.,1.2,17.,1.2,0.,1.2,1.,1.2
1979-07-16 09:03:22.210 ,3,0,2.,1.2,15.,1.2,0.,1.2,1.,1.2
1979-07-16 09:03:23.410 ,3,0,0.,1.2,13.,1.2,1.,1.2,0.,1.2
1979-07-16 09:03:24.610 ,3,0,7.,1.2,12.,1.2,0.,1.2,0.,1.2
1979-07-16 09:03:25.810 ,3,0,3.,1.2,13.,1.2,0.,1.2,0.,1.2
1979-07-16 09:03:27.010 ,3,0,0.,1.2,12.,1.2,0.,1.2,0.,1.2
1979-07-16 09:03:28.210 ,3,0,2.,1.2,15.,1.2,0.,1.2,0.,1.2
1979-07-16 09:03:29.410 ,3,0,2.,1.2,17.,1.2,0.,1.2,0.,1.2
1979-07-16 09:03:30.610 ,3,0,1.,1.2,10.,1.2,0.,1.2,0.,1.2
1979-07-16 09:03:31.810 ,3,0,0.,1.2,17.,1.2,0.,1.2,0.,1.2
1979-07-16 09:03:33.010 ,3,0,3.,1.2,11.,1.2,0.,1.2,0.,1.2
1979-07-16 09:03:34.210 ,3,0,1.,1.2,10.,1.2,0.,1.2,0.,1.2
1979-07-16 09:03:35.410 ,3,0,2.,1.2,11.,1.2,0.,1.2,0.,1.2
1979-07-16 09:03:36.610 ,3,0,3.,1.2,15.,1.2,0.,1.2,0.,1.2
1979-07-16 09:03:37.810 ,3,0,1.,1.2,21.,1.2,1.,1.2,0.,1.2
1979-07-16 09:03:39.010 ,3,0,4.,1.2,15.,1.2,0.,1.2,1.,1.2
1979-07-16 09:03:40.210 ,3,0,0.,1.2,17.,1.2,0.,1.2,0.,1.2
1979-07-16 09:03:41.410 ,3,0,2.,1.2,18.,1.2,0.,1.2,0.,1.2
1979-07-16 09:03:42.610 ,3,0,3.,1.2,24.,1.2,0.,1.2,0.,1.2
1979-07-16 09:03:43.810 ,3,0,4.,1.2,10.,1.2,0.,1.2,0.,1.2
1979-07-16 09:03:45.010 ,3,0,1.,1.2,20.,1.2,0.,1.2,0.,1.2
1979-07-16 09:03:46.210 ,3,0,1.,1.2,22.,1.2,1.,1.2,0.,1.2
1979-07-16 09:03:47.410 ,3,0,2.,1.2,18.,1.2,0.,1.2,0.,1.2
1979-07-16 09:03:48.610 ,3,0,2.,1.2,18.,1.2,1.,1.2,1.,1.2
1979-07-16 09:03:49.810 ,3,0,2.,1.2,16.,1.2,0.,1.2,0.,1.2
1979-07-16 09:03:51.010 ,3,0,3.,1.2,20.,1.2,0.,1.2,1.,1.2
1979-07-16 09:03:52.210 ,3,0,2.,1.2,24.,1.2,0.,1.2,0.,1.2
1979-07-16 09:03:53.410 ,3,0,2.,1.2,18.,1.2,1.,1.2,1.,1.2
1979-07-16 09:03:54.610 ,3,0,4.,1.2,16.,1.2,0.,1.2,1.,1.2
1979-07-16 09:03:55.810 ,3,0,4.,1.2,12.,1.2,1.,1.2,0.,1.2
1979-07-16 09:03:57.010 ,3,0,4.,1.2,15.,1.2,0.,1.2,0.,1.2
1979-07-16 09:03:58.210 ,3,0,0.,1.2,13.,1.2,0.,1.2,0.,1.2
1979-07-16 09:03:59.410 ,4,0,3.,1.2,20.,1.2,0.,1.2,0.,1.2
1979-07-16 09:04:00.610 ,4,0,2.,1.2,13.,1.2,0.,1.2,0.,1.2
1979-07-16 09:04:01.810 ,4,0,1.,1.2,7.,1.2,0.,1.2,0.,1.2
1979-07-16 09:04:03.010 ,4,0,3.,1.2,13.,1.2,0.,1.2,0.,1.2
1979-07-16 09:04:04.210 ,4,0,6.,1.2,14.,1.2,1.,1.2,0.,1.2
1979-07-16 09:04:05.410 ,4,0,3.,1.2,528.,1.2,1.,1.2,0.,1.2
1979-07-16 09:04:06.610 ,4,0,3.,1.2,70.,1.2,1.,1.2,0.,1.2
1979-07-16 09:04:07.810 ,4,0,1.,1.2,68.,1.2,0.,1.2,0.,1.2
1979-07-16 09:04:09.010 ,4,0,2.,1.2,64.,1.2,0.,1.2,0.,1.2
1979-07-16 09:04:10.210 ,4,0,2.,1.2,47.,1.2,0.,1.2,0.,1.2
1979-07-16 09:04:11.410 ,4,0,7.,1.2,70.,1.2,0.,1.2,0.,1.2
1979-07-16 09:04:12.610 ,4,0,1.,1.2,72.,1.2,0.,1.2,0.,1.2
1979-07-16 09:04:13.810 ,4,0,1.,1.2,62.,1.2,0.,1.2,0.,1.2
1979-07-16 09:04:15.010 ,4,0,2.,1.2,68.,1.2,1.,1.2,0.,1.2
1979-07-16 09:04:16.210 ,4,0,4.,1.2,74.,1.2,0.,1.2,0.,1.2
1979-07-16 09:04:17.410 ,4,0,2.,1.2,52.,1.2,0.,1.2,0.,1.2
1979-07-16 09:04:18.610 ,4,0,4.,1.2,68.,1.2,0.,1.2,0.,1.2
1979-07-16 09:04:19.810 ,4,0,2.,1.2,60.,1.2,0.,1.2,1.,1.2
1979-07-16 09:04:21.010 ,4,0,3.,1.2,45.,1.2,0.,1.2,0.,1.2
1979-07-16 09:04:22.210 ,4,0,1.,1.2,52.,1.2,0.,1.2,0.,1.2
1979-07-16 09:04:23.410 ,4,0,8.,1.2,57.,1.2,0.,1.2,0.,1.2
1979-07-16 09:04:24.610 ,4,0,3.,1.2,68.,1.2,1.,1.2,0.,1.2
1979-07-16 09:04:25.810 ,4,0,3.,1.2,70.,1.2,0.,1.2,0.,1.2
1979-07-16 09:04:27.010 ,4,0,5.,1.2,68.,1.2,0.,1.2,0.,1.2
1979-07-16 09:04:28.210 ,4,0,4.,1.2,47.,1.2,0.,1.2,0.,1.2
1979-07-16 09:04:29.410 ,4,0,3.,1.2,46.,1.2,0.,1.2,0.,1.2
1979-07-16 09:04:30.610 ,4,0,2.,1.2,48.,1.2,1.,1.2,1.,1.2
1979-07-16 09:04:31.810 ,4,0,1.,1.2,58.,1.2,0.,1.2,0.,1.2
1979-07-16 09:04:33.010 ,4,0,2.,1.2,88.,1.2,0.,1.2,0.,1.2
1979-07-16 09:04:34.210 ,4,0,2.,1.2,72.,1.2,0.,1.2,1.,1.2
1979-07-16 09:04:35.410 ,4,0,0.,1.2,66.,1.2,0.,1.2,0.,1.2
1979-07-16 09:04:36.610 ,4,0,2.,1.2,64.,1.2,0.,1.2,0.,1.2
1979-07-16 09:04:37.810 ,4,0,2.,1.2,44.,1.2,0.,1.2,1.,1.2
1979-07-16 09:04:39.010 ,4,0,1.,1.2,48.,1.2,1.,1.2,0.,1.2
1979-07-16 09:04:40.210 ,4,0,4.,1.2,64.,1.2,0.,1.2,0.,1.2
1979-07-16 09:04:41.410 ,4,0,2.,1.2,59.,1.2,0.,1.2,0.,1.2
1979-07-16 09:04:42.610 ,4,0,2.,1.2,45.,1.2,0.,1.2,0.,1.2
1979-07-16 09:04:43.810 ,4,0,4.,1.2,45.,1.2,0.,1.2,0.,1.2
1979-07-16 09:04:45.010 ,4,0,3.,1.2,51.,1.2,0.,1.2,0.,1.2
1979-07-16 09:04:46.210 ,4,0,1.,1.2,38.,1.2,1.,1.2,0.,1.2
1979-07-16 09:04:47.410 ,5,0,2.,1.2,66.,1.2,0.,1.2,0.,1.2
1979-07-16 09:04:48.610 ,5,0,3.,1.2,41.,1.2,0.,1.2,0.,1.2
1979-07-16 09:04:49.810 ,5,0,,0,,0,,0,,0
1979-07-16 09:04:51.010 ,5,0,1.,1.2,46.,1.2,0.,1.2,0.,1.2
1979-07-16 09:04:52.210 ,5,0,2.,1.2,44.,1.2,0.,1.2,0.,1.2
1979-07-16 09:04:53.410 ,5,0,0.,1.2,432.,1.2,0.,1.2,0.,1.2
1979-07-16 09:04:54.610 ,5,0,4.,1.2,34.,1.2,0.,1.2,0.,1.2
1979-07-16 09:04:55.810 ,5,0,2.,1.2,30.,1.2,0.,1.2,1.,1.2
1979-07-16 09:04:57.010 ,5,0,4.,1.2,32.,1.2,1.,1.2,1.,1.2
1979-07-16 09:04:58.210 ,5,0,0.,1.2,26.,1.2,0.,1.2,1.,1.2
1979-07-16 09:04:59.410 ,5,0,2.,1.2,34.,1.2,0.,1.2,0.,1.2
1979-07-16 09:05:00.610 ,5,0,1.,1.2,38.,1.2,0.,1.2,0.,1.2
1979-07-16 09:05:01.810 ,5,0,5.,1.2,40.,1.2,0.,1.2,1.,1.2
1979-07-16 09:05:03.010 ,5,0,4.,1.2,32.,1.2,0.,1.2,0.,1.2
1979-07-16 09:05:04.210 ,5,0,0.,1.2,45.,1.2,0.,1.2,0.,1.2
1979-07-16 09:05:05.410 ,5,0,1.,1.2,33.,1.2,0.,1.2,0.,1.2
1979-07-16 09:05:06.610 ,5,0,2.,1.2,42.,1.2,0.,1.2,0.,1.2
1979-07-16 09:05:07.810 ,5,0,1.,1.2,34.,1.2,0.,1.2,0.,1.2
1979-07-16 09:05:09.010 ,5,0,1.,1.2,34.,1.2,0.,1.2,0.,1.2
1979-07-16 09:05:10.210 ,5,0,0.,1.2,40.,1.2,0.,1.2,0.,1.2
1979-07-16 09:05:11.410 ,5,0,2.,1.2,33.,1.2,0.,1.2,0.,1.2
1979-07-16 09:05:12.610 ,5,0,0.,1.2,32.,1.2,0.,1.2,1.,1.2
1979-07-16 09:05:13.810 ,5,0,5.,1.2,37.,1.2,0.,1.2,1.,1.2
1979-07-16 09:05:15.010 ,5,0,7.,1.2,44.,1.2,1.,1.2,0.,1.2
1979-07-16 09:05:16.210 ,5,0,2.,1.2,46.,1.2,0.,1.2,0.,1.2
1979-07-16 09:05:17.410 ,5,0,5.,1.2,35.,1.2,0.,1.2,0.,1.2
1979-07-16 09:05:18.610 ,5,0,2.,1.2,28.,1.2,0.,1.2,0.,1.2
1979-07-16 09:05:19.810 ,5,0,2.,1.2,39.,1.2,0.,1.2,0.,1.2
1979-07-16 09:05:21.010 ,5,0,3.,1.2,31.,1.2,0.,1.2,1.,1.2
1979-07-16 09:05:22.210 ,5,0,4.,1.2,42.,1.2,0.,1.2,0.,1.2
1979-07-16 09:05:23.410 ,5,0,0.,1.2,48.,1.2,0.,1.2,0.,1.2
1979-07-16 09:05:24.610 ,5,0,1.,1.2,32.,1.2,0.,1.2,1.,1.2
1979-07-16 09:05:25.810 ,5,0,0.,1.2,34.,1.2,0.,1.2,0.,1.2
1979-07-16 09:05:27.010 ,5,0,3.,1.2,33.,1.2,0.,1.2,2.,1.2
1979-07-16 09:05:28.210 ,5,0,4.,1.2,34.,1.2,1.,1.2,0.,1.2
1979-07-16 09:05:29.410 ,5,0,2.,1.2,25.,1.2,0.,1.2,1.,1.2
1979-07-16 09:05:30.610 ,5,0,1.,1.2,39.,1.2,0.,1.2,0.,1.2
1979-07-16 09:05:31.810 ,5,0,1.,1.2,20.,1.2,1.,1.2,0.,1.2
1979-07-16 09:05:33.010 ,5,0,1.,1.2,32.,1.2,0.,1.2,0.,1.2
1979-07-16 09:05:34.210 ,5,0,1.,1.2,33.,1.2,0.,1.2,0.,1.2
1979-07-16 09:05:35.410 ,6,0,0.,1.2,37.,1.2,0.,1.2,0.,1.2
1979-07-16 09:05:36.610 ,6,0,1.,1.2,33.,1.2,0.,1.2,0.,1.2
1979-07-16 09:05:37.810 ,6,0,0.,1.2,24.,1.2,0.,1.2,0.,1.2
1979-07-16 09:05:39.010 ,6,0,2.,1.2,49.,1.2,0.,1.2,0.,1.2
1979-07-16 09:05:40.210 ,6,0,2.,1.2,49.,1.2,0.,1.2,0.,1.2
1979-07-16 09:05:41.410 ,6,0,2.,1.2,512.,1.2,0.,1.2,0.,1.2
1979-07-16 09:05:42.610 ,6,0,3.,1.2,35.,1.2,0.,1.2,0.,1.2
1979-07-16 09:05:43.810 ,6,0,4.,1.2,51.,1.2,1.,1.2,2.,1.2
1979-07-16 09:05:45.010 ,6,0,1.,1.2,49.,1.2,0.,1.2,0.,1.2
1979-07-16 09:05:46.210 ,6,0,4.,1.2,40.,1.2,0.,1.2,0.,1.2
1979-07-16 09:05:47.410 ,6,0,3.,1.2,34.,1.2,0.,1.2,0.,1.2
1979-07-16 09:05:48.610 ,6,0,3.,1.2,23.,1.2,0.,1.2,0.,1.2
1979-07-16 09:05:49.810 ,6,0,2.,1.2,29.,1.2,0.,1.2,0.,1.2
1979-07-16 09:05:51.010 ,6,0,0.,1.2,43.,1.2,1.,1.2,0.,1.2
1979-07-16 09:05:52.210 ,6,0,4.,1.2,32.,1.2,0.,1.2,0.,1.2
1979-07-16 09:05:53.410 ,6,0,4.,1.2,36.,1.2,0.,1.2,0.,1.2
1979-07-16 09:05:54.610 ,6,0,1.,1.2,35.,1.2,0.,1.2,0.,1.2
1979-07-16 09:05:55.810 ,6,0,5.,1.2,30.,1.2,0.,1.2,1.,1.2
1979-07-16 09:05:57.010 ,6,0,1.,1.2,35.,1.2,0.,1.2,1.,1.2
1979-07-16 09:05:58.210 ,6,0,1.,1.2,38.,1.2,0.,1.2,0.,1.2
1979-07-16 09:05:59.410 ,6,0,1.,1.2,35.,1.2,0.,1.2,1.,1.2
1979-07-16 09:06:00.610 ,6,0,2.,1.2,32.,1.2,0.,1.2,1.,1.2
1979-07-16 09:06:01.810 ,6,0,3.,1.2,44.,1.2,0.,1.2,0.,1.2
1979-07-16 09:06:03.010 ,6,0,2.,1.2,35.,1.2,0.,1.2,0.,1.2
1979-07-16 09:06:04.210 ,6,0,4.,1.2,37.,1.2,0.,1.2,0.,1.2
1979-07-16 09:06:05.410 ,6,0,2.,1.2,22.,1.2,0.,1.2,0.,1.2
1979-07-16 09:06:06.610 ,6,0,2.,1.2,42.,1.2,1.,1.2,0.,1.2
1979-07-16 09:06:07.810 ,6,0,1.,1.2,40.,1.2,1.,1.2,0.,1.2
1979-07-16 09:06:09.010 ,6,0,1.,1.2,34.,1.2,2.,1.2,0.,1.2
1979-07-16 09:06:10.210 ,6,0,1.,1.2,26.,1.2,0.,1.2,0.,1.2
1979-07-16 09:06:11.410 ,6,0,0.,1.2,33.,1.2,1.,1.2,0.,1.2
1979-07-16 09:06:12.610 ,6,0,3.,1.2,25.,1.2,0.,1.2,0.,1.2
1979-07-16 09:06:13.810 ,6,0,5.,1.2,31.,1.2,0.,1.2,0.,1.2
1979-07-16 09:06:15.010 ,6,0,1.,1.2,27.,1.2,1.,1.2,0.,1.2
1979-07-16 09:06:16.210 ,6,0,1.,1.2,31.,1.2,0.,1.2,0.,1.2
1979-07-16 09:06:17.410 ,6,0,2.,1.2,44.,1.2,0.,1.2,0.,1.2
1979-07-16 09:06:18.610 ,6,0,2.,1.2,32.,1.2,0.,1.2,0.,1.2
1979-07-16 09:06:19.810 ,6,0,2.,1.2,27.,1.2,0.,1.2,0.,1.2
1979-07-16 09:06:21.010 ,6,0,2.,1.2,30.,1.2,0.,1.2,0.,1.2
1979-07-16 09:06:22.210 ,6,0,2.,1.2,28.,1.2,0.,1.2,0.,1.2
1979-07-16 09:06:23.410 ,7,0,2.,1.2,26.,1.2,0.,1.2,0.,1.2
1979-07-16 09:06:24.610 ,7,0,2.,1.2,39.,1.2,1.,1.2,0.,1.2
1979-07-16 09:06:25.810 ,7,0,2.,1.2,34.,1.2,0.,1.2,0.,1.2
1979-07-16 09:06:27.010 ,7,0,2.,1.2,38.,1.2,0.,1.2,0.,1.2
1979-07-16 09:06:28.210 ,7,0,5.,1.2,34.,1.2,0.,1.2,0.,1.2
1979-07-16 09:06:29.410 ,7,0,1.,1.2,432.,1.2,0.,1.2,0.,1.2
1979-07-16 09:06:30.610 ,7,0,0.,1.2,28.,1.2,4.,1.2,0.,1.2
1979-07-16 09:06:31.810 ,7,0,0.,1.2,26.,1.2,8.,1.2,0.,1.2
1979-07-16 09:06:33.010 ,7,0,0.,1.2,31.,1.2,7.,1.2,0.,1.2
1979-07-16 09:06:34.210 ,7,0,0.,1.2,41.,1.2,8.,1.2,0.,1.2
1979-07-16 09:06:35.410 ,7,0,0.,1.2,56.,1.2,8.,1.2,0.,1.2
1979-07-16 09:06:36.610 ,7,0,0.,1.2,34.,1.2,6.,1.2,0.,1.2
1979-07-16 09:06:37.810 ,7,0,0.,1.2,29.,1.2,8.,1.2,0.,1.2
1979-07-16 09:06:39.010 ,7,0,0.,1.2,23.,1.2,5.,1.2,0.,1.2
1979-07-16 09:06:40.210 ,7,0,0.,1.2,35.,1.2,10.,1.2,0.,1.2
1979-07-16 09:06:41.410 ,7,0,0.,1.2,30.,1.2,3.,1.2,0.,1.2
1979-07-16 09:06:42.610 ,7,0,0.,1.2,34.,1.2,1.,1.2,0.,1.2
1979-07-16 09:06:43.810 ,7,0,0.,1.2,29.,1.2,2.,1.2,0.,1.2
1979-07-16 09:06:45.010 ,7,0,0.,1.2,30.,1.2,7.,1.2,0.,1.2
1979-07-16 09:06:46.210 ,7,0,0.,1.2,41.,1.2,2.,1.2,0.,1.2
1979-07-16 09:06:47.410 ,7,0,0.,1.2,33.,1.2,5.,1.2,0.,1.2
1979-07-16 09:06:48.610 ,7,0,0.,1.2,24.,1.2,3.,1.2,0.,1.2
1979-07-16 09:06:49.810 ,7,0,0.,1.2,34.,1.2,6.,1.2,0.,1.2
1979-07-16 09:06:51.010 ,7,0,0.,1.2,23.,1.2,6.,1.2,0.,1.2
1979-07-16 09:06:52.210 ,7,0,0.,1.2,39.,1.2,5.,1.2,0.,1.2
1979-07-16 09:06:53.410 ,7,0,0.,1.2,27.,1.2,5.,1.2,0.,1.2
1979-07-16 09:06:54.610 ,7,0,0.,1.2,29.,1.2,6.,1.2,0.,1.2
1979-07-16 09:06:55.810 ,7,0,0.,1.2,33.,1.2,7.,1.2,0.,1.2
1979-07-16 09:06:57.010 ,7,0,0.,1.2,25.,1.2,5.,1.2,0.,1.2
1979-07-16 09:06:58.210 ,7,0,0.,1.2,29.,1.2,12.,1.2,0.,1.2
1979-07-16 09:06:59.410 ,7,0,0.,1.2,36.,1.2,5.,1.2,0.,1.2
1979-07-16 09:07:00.610 ,7,0,0.,1.2,34.,1.2,8.,1.2,0.,1.2
1979-07-16 09:07:01.810 ,7,0,0.,1.2,37.,1.2,3.,1.2,0.,1.2
1979-07-16 09:07:03.010 ,7,0,0.,1.2,30.,1.2,3.,1.2,0.,1.2
1979-07-16 09:07:04.210 ,7,0,0.,1.2,38.,1.2,6.,1.2,1.,1.2
1979-07-16 09:07:05.410 ,7,0,0.,1.2,24.,1.2,5.,1.2,0.,1.2
1979-07-16 09:07:06.610 ,7,0,0.,1.2,31.,1.2,7.,1.2,0.,1.2
1979-07-16 09:07:07.810 ,7,0,0.,1.2,32.,1.2,7.,1.2,0.,1.2
1979-07-16 09:07:09.010 ,7,0,0.,1.2,28.,1.2,8.,1.2,0.,1.2
1979-07-16 09:07:10.210 ,7,0,0.,1.2,41.,1.2,3.,1.2,0.,1.2
1979-07-16 09:07:11.410 ,3,0,1.,1.2,504.,1.2,7.,1.2,0.,1.2
1979-07-16 09:07:12.610 ,3,0,2.,1.2,38.,1.2,0.,1.2,1.,1.2
1979-07-16 09:07:13.810 ,3,0,4.,1.2,44.,1.2,0.,1.2,0.,1.2
1979-07-16 09:07:15.010 ,3,0,5.,1.2,26.,1.2,0.,1.2,0.,1.2
1979-07-16 09:07:16.210 ,3,0,4.,1.2,37.,1.2,0.,1.2,0.,1.2
1979-07-16 09:07:17.410 ,3,0,2.,1.2,384.,1.2,0.,1.2,1.,1.2
1979-07-16 09:07:18.610 ,3,0,4.,1.2,34.,1.2,0.,1.2,0.,1.2
1979-07-16 09:07:19.810 ,3,0,1.,1.2,36.,1.2,0.,1.2,0.,1.2
1979-07-16 09:07:21.010 ,3,0,6.,1.2,33.,1.2,0.,1.2,0.,1.2
1979-07-16 09:07:22.210 ,3,0,5.,1.2,35.,1.2,1.,1.2,1.,1.2
1979-07-16 09:07:23.410 ,3,0,1.,1.2,328.,1.2,0.,1.2,0.,1.2
1979-07-16 09:07:24.610 ,3,0,0.,1.2,28.,1.2,0.,1.2,0.,1.2
1979-07-16 09:07:25.810 ,3,0,4.,1.2,31.,1.2,0.,1.2,2.,1.2
1979-07-16 09:07:27.010 ,3,0,5.,1.2,25.,1.2,1.,1.2,0.,1.2
1979-07-16 09:07:28.210 ,3,0,2.,1.2,25.,1.2,1.,1.2,0.,1.2
1979-07-16 09:07:29.410 ,3,0,2.,1.2,432.,1.2,0.,1.2,1.,1.2
1979-07-16 09:07:30.610 ,3,0,3.,1.2,14.,1.2,0.,1.2,1.,1.2
1979-07-16 09:07:31.810 ,3,0,3.,1.2,16.,1.2,0.,1.2,1.,1.2
1979-07-16 09:07:33.010 ,3,0,2.,1.2,20.,1.2,0.,1.2,0.,1.2
1979-07-16 09:07:34.210 ,3,0,2.,1.2,16.,1.2,0.,1.2,0.,1.2
1979-07-16 09:07:35.410 ,0,0,4.,1.2,392.,1.2,0.,1.2,0.,1.2
1979-07-16 09:07:36.610 ,0,0,6.,1.2,40.,1.2,1.,1.2,2.,1.2
1979-07-16 09:07:37.810 ,0,0,4.,1.2,27.,1.2,0.,1.2,0.,1.2
1979-07-16 09:07:39.010 ,0,0,2.,1.2,23.,1.2,0.,1.2,0.,1.2
1979-07-16 09:07:40.210 ,0,0,2.,1.2,28.,1.2,0.,1.2,0.,1.2
1979-07-16 09:07:41.410 ,0,0,1.,1.2,392.,1.2,0.,1.2,1.,1.2
1979-07-16 09:07:42.610 ,0,0,2.,1.2,33.,1.2,0.,1.2,0.,1.2
1979-07-16 09:07:43.810 ,0,0,2.,1.2,33.,1.2,0.,1.2,1.,1.2
1979-07-16 09:07:45.010 ,0,0,5.,1.2,43.,1.2,0.,1.2,0.,1.2
1979-07-16 09:07:46.210 ,0,0,5.,1.2,18.,1.2,0.,1.2,0.,1.2
1979-07-16 09:07:47.410 ,0,0,2.,1.2,512.,1.2,0.,1.2,1.,1.2
1979-07-16 09:07:48.610 ,0,0,1.,1.2,37.,1.2,0.,1.2,0.,1.2
1979-07-16 09:07:49.810 ,0,0,0.,1.2,33.,1.2,0.,1.2,0.,1.2
1979-07-16 09:07:51.010 ,0,0,3.,1.2,37.,1.2,0.,1.2,0.,1.2
1979-07-16 09:07:52.210 ,0,0,6.,1.2,35.,1.2,0.,1.2,0.,1.2
1979-07-16 09:07:53.410 ,0,0,2.,1.2,46.,1.2,0.,1.2,0.,1.2
1979-07-16 09:07:54.610 ,0,0,3.,1.2,41.,1.2,0.,1.2,0.,1.2
1979-07-16 09:07:55.810 ,0,0,3.,1.2,32.,1.2,1.,1.2,0.,1.2
1979-07-16 09:07:57.010 ,0,0,2.,1.2,29.,1.2,0.,1.2,0.,1.2
1979-07-16 09:07:58.210 ,0,0,4.,1.2,26.,1.2,0.,1.2,0.,1.2
1979-07-16 09:07:59.410 ,4,0,3.,1.2,376.,1.2,0.,1.2,0.,1.2
1979-07-16 09:08:00.610 ,4,0,2.,1.2,26.,1.2,1.,1.2,0.,1.2
1979-07-16 09:08:01.810 ,4,0,1.,1.2,29.,1.2,0.,1.2,0.,1.2
1979-07-16 09:08:03.010 ,4,0,3.,1.2,35.,1.2,0.,1.2,1.,1.2
1979-07-16 09:08:04.210 ,4,0,5.,1.2,25.,1.2,0.,1.2,0.,1.2
1979-07-16 09:08:05.410 ,4,0,2.,1.2,408.,1.2,0.,1.2,0.,1.2
1979-07-16 09:08:06.610 ,4,0,2.,1.2,28.,1.2,0.,1.2,0.,1.2
1979-07-16 09:08:07.810 ,4,0,2.,1.2,24.,1.2,0.,1.2,0.,1.2
1979-07-16 09:08:09.010 ,4,0,3.,1.2,23.,1.2,0.,1.2,0.,1.2
1979-07-16 09:08:10.210 ,4,0,4.,1.2,21.,1.2,0.,1.2,1.,1.2
1979-07-16 09:08:11.410 ,4,0,1.,1.2,368.,1.2,0.,1.2,0.,1.2
1979-07-16 09:08:12.610 ,4,0,2.,1.2,17.,1.2,0.,1.2,0.,1.2
1979-07-16 09:08:13.810 ,4,0,2.,1.2,14.,1.2,0.,1.2,0.,1.2
1979-07-16 09:08:15.010 ,4,0,1.,1.2,12.,1.2,0.,1.2,0.,1.2
1979-07-16 09:08:16.210 ,4,0,0.,1.2,14.,1.2,0.,1.2,0.,1.2
1979-07-16 09:08:17.410 ,4,0,1.,1.2,368.,1.2,0.,1.2,1.,1.2
1979-07-16 09:08:18.610 ,4,0,1.,1.2,33.,1.2,1.,1.2,1.,1.2
1979-07-16 09:08:19.810 ,4,0,2.,1.2,34.,1.2,0.,1.2,0.,1.2
1979-07-16 09:08:21.010 ,4,0,6.,1.2,24.,1.2,0.,1.2,0.,1.2
1979-07-16 09:08:22.210 ,4,0,0.,1.2,35.,1.2,1.,1.2,0.,1.2
1979-07-16 09:08:23.410 ,7,0,4.,1.2,352.,1.2,0.,1.2,0.,1.2
1979-07-16 09:08:24.610 ,7,0,2.,1.2,36.,1.2,1.,1.2,1.,1.2
1979-07-16 09:08:25.810 ,7,0,3.,1.2,46.,1.2,0.,1.2,0.,1.2
1979-07-16 09:08:27.010 ,7,0,2.,1.2,30.,1.2,0.,1.2,0.,1.2
1979-07-16 09:08:28.210 ,7,0,1.,1.2,33.,1.2,0.,1.2,0.,1.2